Brookings, OR

3:39 AM PDT on May 29, 2017 (GMT -0700)
Brookings State

Weather History for KBOK - January, 2014

Change the Weather History Date:

Monday, January 13, 2014

  Actual Average Record
Temperature  
Mean Temperature 51 °F -  
Max Temperature 59 °F 54 °F 68 °F (2009)
Min Temperature 43 °F 43 °F 26 °F (2007)
Degree Days  
Heating Degree Days 14    
Growing Degree Days 1 (Base 50)    
Moisture  
Dew Point 42 °F    
Average Humidity 75    
Maximum Humidity 100    
Minimum Humidity 33    
Precipitation  
Precipitation 0.00 in - - ()
Sea Level Pressure  
Sea Level Pressure 30.53 in    
Wind  
Wind Speed 2 mph (NNW)    
Max Wind Speed 12 mph    
Max Gust Speed 22 mph    
Visibility 9 miles    
Events      
Averages and records for this station are not official NWS values.
T = Trace of Precipitation, MM = Missing Value Source: NWS Daily Summary

Daily Weather History Graph

Daily Weather History Graph

Search for Another Location

Airport or City:

Trip Planner

Search our weather history database for the weather conditions in past years. The results will help you decide how hot, cold, wet, or windy it might be!

Date:

Astronomy

Jan. 13, 2014 Rise Set
Actual Time 7:43 AM PST 5:08 PM PST
Civil Twilight 7:12 AM PST 5:39 PM PST
Nautical Twilight 6:38 AM PST 6:14 PM PST
Astronomical Twilight 6:04 AM PST 6:47 PM PST
Moon 3:28 PM PST (1/13) 5:36 AM PST (1/13)
Length of Visible Light 10h 26m
Length of Day
9h 25m
Waxing Gibbous, 95% of the Moon is Illuminated
Jan 13
Waxing Gibbous
Jan 15
Full
Jan 23
Last Quarter
Jan 30
New
Feb 6
First Quarter

Hourly Weather History & Observations

Time (PST) Temp. Dew Point Humidity Pressure Visibility Wind Dir Wind Speed Gust Speed Precip Events Conditions
12:56 AM 43.9 °F 43.9 °F 100% 30.58 in 10.0 mi Calm Calm - N/A   Partly Cloudy
1:56 AM 43.0 °F 43.0 °F 100% 30.58 in 10.0 mi Calm Calm - N/A   Clear
2:56 AM 43.0 °F 43.0 °F 100% 30.58 in 9.0 mi Calm Calm - N/A   Clear
3:56 AM 47.8 °F 43.9 °F 86% 30.57 in 10.0 mi Variable 6.9 mph - N/A   Clear
4:56 AM 48.9 °F 43.0 °F 80% 30.54 in 10.0 mi NNE 11.5 mph 21.9 mph N/A   Clear
5:56 AM 48.9 °F 41.9 °F 77% 30.53 in 10.0 mi North 9.2 mph - N/A   Clear
6:56 AM 46.9 °F 41.0 °F 80% 30.54 in 10.0 mi Calm Calm - N/A   Clear
7:56 AM 43.0 °F 41.9 °F 96% 30.55 in 10.0 mi Calm Calm - N/A   Clear
8:56 AM 45.9 °F 41.9 °F 86% 30.56 in 10.0 mi Calm Calm - N/A   Clear
9:56 AM 50.9 °F 45.0 °F 80% 30.57 in 10.0 mi SSE 4.6 mph - N/A   Clear
10:56 AM 52.9 °F 45.9 °F 77% 30.57 in 7.0 mi Calm Calm - N/A   Clear
11:56 AM 55.9 °F 45.9 °F 69% 30.55 in 10.0 mi Calm Calm - N/A   Clear
12:56 PM 52.9 °F 45.9 °F 77% 30.53 in 5.0 mi WNW 4.6 mph - N/A   Haze
1:56 PM 55.9 °F 43.9 °F 64% 30.51 in 9.0 mi WNW 3.5 mph - N/A   Clear
2:56 PM 57.9 °F 43.0 °F 58% 30.51 in 9.0 mi NW 3.5 mph - N/A   Clear
3:56 PM 57.9 °F 45.9 °F 64% 30.50 in 7.0 mi NW 3.5 mph - N/A   Clear
4:56 PM 54.0 °F 48.9 °F 83% 30.50 in 7.0 mi Calm Calm - N/A   Clear
5:56 PM 59.0 °F 36.0 °F 42% 30.48 in 10.0 mi NE 8.1 mph - N/A   Clear
6:56 PM 52.0 °F 43.0 °F 71% 30.50 in 5.0 mi Calm Calm - N/A   Haze
7:56 PM 50.9 °F 43.0 °F 74% 30.51 in 7.0 mi Calm Calm - N/A   Clear
8:56 PM 50.9 °F 39.9 °F 66% 30.51 in 10.0 mi Calm Calm - N/A   Clear
9:56 PM 46.9 °F 41.9 °F 83% 30.52 in 8.0 mi Calm Calm - N/A   Clear
10:56 PM 52.9 °F 36.0 °F 53% 30.51 in 10.0 mi Calm Calm - N/A   Clear
11:56 PM 55.9 °F 27.1 °F 33% 30.48 in 10.0 mi Variable 6.9 mph - N/A   Clear